Content
SEND FEEDBACK

Daily
Averages
Monthly
Summary
United States of America

BLACK CREEK, NORTH CAROLINA


Home > North America > United States > North Carolina
Elevation: 96 feet     Latitude: 35 42N     Longitude: 077 57W

WEATHER
 
SELECT A DAY
Number of Records: 181,066;   Date Range: 1/1/95 - 9/29/14
 
SHARE

PRINT THIS DATA

[ ← Previous Day ]
WEATHER ALMANAC - FEBRUARY 13, 2013
[ Next Day → ]
[ °C ]   °F
Weather ElementAverageHighLow
Temperature47.3 °F50 °F (7:17 pm)44.6 °F (5:44 am)
Dewpoint44.5 °F46.9 °F (3:53 pm)37.9 °F (11:53 pm)
Humidity90.1 %100 % (6:30 am)71 % (11:53 pm)
Barometer29.75 in29.90 in (1:53 am)29.62 in (3:53 pm)
Wind Speed3.9 mph13.8 mph (11:53 pm)
Wind Gust26.5 mph (11:53 pm)
Weather ElementAverage
Visibility6.1 mi
Wind DirectionESE (116.6 °)

Weather ElementTotal
Precipitation1.22 in
Heating Degree Days17.7 (Base 65)
Averaged from 41 records on February 13, 2013
WEATHER CONDITIONS BREAKOUT
WIND DIRECTION BREAKOUT
WEATHER BY HOUR - FEBRUARY 13, 2013
[ °C ]   °F
Local TimeTemperatureDewpointHumidityBarometerVisibilityWind DirectionWind SpeedGust SpeedPrecipitationEventsConditions
1:53 AM48.0 °F39.9 °F74 %29.90 in10.0 miCalm0.01 inOvercast
2:53 AM46.9 °F39.9 °F77 %29.84 in10.0 miSE (140°)3.5 mph0.01 inOvercast
3:53 AM46.9 °F43.0 °F86 %29.88 in10.0 miCalm0.00 inRainLight Rain
4:53 AM46.0 °F43.0 °F89 %29.83 in4.0 miCalm0.05 inRainRain
5:44 AM44.6 °F42.8 °F93 %29.81 in2.5 miCalm0.17 inRainHeavy Rain
5:53 AM45.0 °F43.0 °F93 %29.82 in3.0 miSE (140°)3.5 mph0.22 inRainRain
6:10 AM44.6 °F42.8 °F93 %29.82 in2.5 miCalm0.05 inRainRain
6:30 AM44.6 °F44.6 °F100 %29.84 in3.0 miSSW (200°)4.6 mph0.12 inRainRain
6:32 AM44.6 °F44.6 °F100 %29.84 in2.5 miSouth (190°)4.6 mph0.14 inRainRain
6:46 AM44.6 °F44.6 °F100 %29.84 in3.0 miCalm0.17 inRainLight Rain
6:53 AM45.0 °F44.1 °F97 %29.84 in4.0 miCalm0.17 inRainLight Rain
7:53 AM46.0 °F44.1 °F93 %29.87 in3.0 miCalm0.07 inRainLight Rain
8:14 AM46.4 °F44.6 °F93 %29.86 in2.5 miENE (70°)3.5 mph0.01 inRainLight Rain
8:24 AM46.4 °F44.6 °F93 %29.84 in4.0 miENE (60°)3.5 mph0.01 inRainLight Rain
8:53 AM46.0 °F44.1 °F93 %29.84 in10.0 miNE (50°)4.6 mph0.01 inOvercast
9:53 AM46.9 °F44.1 °F90 %29.81 in10.0 miCalmOvercast
10:01 AM46.4 °F44.6 °F93 %29.80 in10.0 miEast (80°)3.5 mphOvercast
10:17 AM46.4 °F44.6 °F93 %29.78 in10.0 miENE (60°)4.6 mphOvercast
10:53 AM46.9 °F45.0 °F93 %29.76 in7.0 miEast (80°)3.5 mphOvercast
11:53 AM48.0 °F45.0 °F89 %29.76 in2.0 miCalm0.01 inRainLight Rain
12:14 PM48.2 °F44.6 °F87 %29.71 in4.0 miNE (40°)4.6 mph0.00 inOvercast
12:53 PM48.0 °F45.0 °F89 %29.71 in9.0 miCalm0.00 inOvercast
1:53 PM48.0 °F46.0 °F93 %29.66 in10.0 miCalmOvercast
2:31 PM48.2 °F46.4 °F93 %29.65 in2.5 miCalmOvercast
2:53 PM48.0 °F46.0 °F93 %29.65 in1.5 miCalmOvercast
3:23 PM48.2 °F46.4 °F93 %29.64 in1.5 miCalmOvercast
3:42 PM48.2 °F46.4 °F93 %29.63 in2.0 miSE (140°)3.5 mphOvercast
3:53 PM48.0 °F46.9 °F96 %29.62 in1.5 miSouth (170°)3.5 mphOvercast
4:53 PM48.9 °F46.9 °F93 %29.64 in1.5 miSSW (210°)5.8 mphOvercast
5:08 PM48.2 °F46.4 °F93 %29.63 in2.0 miSW (220°)6.9 mphOvercast
5:53 PM48.9 °F46.9 °F93 %29.65 in4.0 miWSW (240°)6.9 mphOvercast
6:08 PM48.2 °F46.4 °F93 %29.66 in6.0 miWSW (250°)9.2 mphOvercast
6:53 PM48.9 °F46.9 °F93 %29.67 in10.0 miWSW (250°)8.1 mphOvercast
7:17 PM50.0 °F46.4 °F87 %29.67 in10.0 miWest (270°)8.1 mphOvercast
7:53 PM50.0 °F46.0 °F86 %29.69 in10.0 miWest (270°)9.2 mphOvercast
8:15 PM50.0 °F44.6 °F82 %29.70 in10.0 miWest (270°)6.9 mph18.4 mphOvercast
8:53 PM50.0 °F45.0 °F83 %29.72 in10.0 miWest (280°)6.9 mph17.3 mphOvercast
9:33 PM48.2 °F44.6 °F87 %29.73 in10.0 miWest (260°)8.1 mph17.3 mphScattered Clouds
9:53 PM48.9 °F44.1 °F83 %29.74 in10.0 miWest (270°)8.1 mphPartly Cloudy
10:53 PM48.9 °F43.0 °F80 %29.77 in10.0 miWest (270°)10.4 mph19.6 mphClear
11:53 PM46.9 °F37.9 °F71 %29.80 in10.0 miWNW (300°)13.8 mph26.5 mphPartly Cloudy
Hourly data recorded from KRWI, located miles away from Black Creek, North Carolina







STORIES FROM OUR PARTNERS